Flag for United Kingdom Weather past 2 weeks in Milton Keynes, England, United Kingdom

Now
59 °F

Passing clouds.


Feels Like: 58 °F
Forecast: 56 / 69 °F
Wind: 8 mph from Southeast

Location: Luton Airport

Current Time: Aug 27, 2014 at 10:33:27 PM

Latest Report: Aug 27, 2014 at 10:20 PM


Visibility: 5 mi

Pressure: 29.89 "Hg

Humidity: 94%

Dew point: 57 °F

Location of Milton KeynesLocation

Historic Weather in Milton Keynes — Graph

°F

Milton Keynes temperature yesterday

Maximum temperature yesterday: 63 °F (at 4:20 PM)
Minimum temperature yesterday: 50 °F (at 11:50 PM)
Average temperature yesterday: 58 °F

Past Weeks' High & Low Weather Summary

 TemperatureHumidityPressure
High70 °F (Aug 13, 2:20 PM)100% (Aug 13, 3:20 AM)30.15 "Hg (Aug 13, 3:20 AM)
Low43 °F (Aug 21, 5:50 AM)34% (Aug 20, 2:20 PM)29.53 "Hg (Aug 25, 10:20 PM)
Average57 °F76%29.88 "Hg
* Reported Aug 12 9:20 PM — Aug 27 9:20 PM, Milton Keynes, Weather by CustomWeather, © 2014

Note: Actual official high and low records may vary slightly from our data, if they occured in-between our weather recording intervals... More about our weather records

Advertising

Milton Keynes weather history for previous 24 hours

 ConditionsComfort  
Time TempWeatherWind HumidityBarometerVisibility
9:20 PM
Aug 27
61 °FPartly cloudy.9 mph83%29.89 "Hg6 mi
8:50 PM61 °FPartly sunny.8 mph83%29.89 "HgN/A
8:20 PM61 °FOvercast.10 mph83%29.89 "HgN/A
7:50 PM61 °FPartly sunny.9 mph83%29.89 "HgN/A
7:20 PM61 °FPartly sunny.10 mph83%29.89 "HgN/A
6:50 PM61 °FPartly sunny.9 mph77%29.92 "HgN/A
6:20 PM63 °FPartly sunny.10 mph73%29.92 "HgN/A
5:50 PM63 °FPartly sunny.9 mph73%29.92 "HgN/A
5:20 PM64 °FMore clouds than sun.12 mph68%29.92 "HgN/A
4:50 PM64 °FPartly sunny.10 mph68%29.92 "HgN/A
3:50 PM64 °FBroken clouds.13 mph64%29.95 "HgN/A
3:20 PM64 °FPartly sunny.12 mph64%29.95 "HgN/A
2:50 PM64 °FPartly sunny.12 mph64%29.95 "HgN/A
2:20 PM64 °FScattered clouds.14 mph64%29.95 "HgN/A
1:50 PM66 °FPartly sunny.14 mph60%29.98 "HgN/A
1:20 PM63 °FPartly sunny.12 mph68%29.98 "HgN/A
12:50 PM63 °FPartly sunny.12 mph73%29.98 "HgN/A
12:20 PM63 °FPartly sunny.12 mph68%29.98 "HgN/A
11:20 AM63 °FScattered clouds.12 mph68%29.98 "HgN/A
10:50 AM63 °FPartly sunny.12 mph64%29.98 "HgN/A
10:20 AM61 °FScattered clouds.10 mph72%29.98 "HgN/A
9:50 AM61 °FPassing clouds.9 mph77%30.01 "HgN/A
9:20 AM61 °FPassing clouds.8 mph77%30.01 "HgN/A
8:50 AM57 °FSunny.8 mph88%30.01 "Hg10 mi
8:20 AM55 °FCool.7 mph94%30.01 "HgN/A
7:50 AM54 °FSunny.7 mph94%29.98 "Hg10 mi
7:20 AM52 °FSunny.6 mph94%29.98 "Hg10 mi
6:50 AM50 °FClear.5 mph94%29.98 "Hg10 mi
6:20 AM50 °FPassing clouds.6 mph94%29.98 "HgN/A
5:50 AM48 °FClear.3 mph94%29.98 "Hg10 mi
5:20 AM48 °FClear.3 mph94%29.98 "Hg10 mi
4:50 AM48 °FClear.3 mph94%29.95 "Hg10 mi
4:20 AM48 °FClear.5 mph100%29.95 "Hg10 mi
3:50 AM48 °FClear.5 mph100%29.95 "Hg10 mi
3:20 AM48 °FPassing clouds.5 mph100%29.95 "HgN/A
2:50 AM50 °FClear.7 mph94%29.95 "Hg10 mi
2:20 AM50 °FClear.9 mph100%29.95 "Hg10 mi
1:50 AM50 °FClear.9 mph100%29.95 "Hg10 mi
1:20 AM50 °FClear.10 mph100%29.95 "Hg10 mi
12:50 AM52 °FClear.10 mph94%29.95 "Hg10 mi
12:20 AM50 °FClear.9 mph100%29.95 "Hg10 mi
11:50 PM
Aug 26
50 °FClear.8 mph94%29.92 "Hg10 mi
11:20 PM52 °FClear.8 mph88%29.92 "Hg10 mi
10:20 PM54 °FPassing clouds.8 mph82%29.92 "HgN/A
Weather by CustomWeather, © 2014

See weather overviewHow to use our weather pages